Regional Weather Roundup
Issued by NWS

Home | Current Version | Previous Version | Graphics & Text | Print | Product List | Glossary On
Versions: 1 2 3 4 5 6 7 8 9 10 11 12 13 14 15 16 17 18 19 20 21 22 23 24 25 26 27 28 29 30 31 32 33 34 35 36 37 38 39 40 41 42 43 44 45 46 47 48 49 50
000
ASUS45 KBOU 290507
RWRCO

WEATHER ROUNDUP FOR COLORADO
NATIONAL WEATHER SERVICE DENVER/BOULDER CO
1100 PM MDT MON JUL 28 2014

NOTE: "FAIR" INDICATES FEW OR NO CLOUDS BELOW 12000 FEET WITH NO
SIGNIFICANT WEATHER AND/OR OBSTRUCTIONS TO VISIBILITY.

COZ001>005-013-030-031-290600-
...NORTHWEST COLORADO...

CITY           SKY/WX    TMP DP  RH WIND       PRES   REMARKS
CRAIG          CLOUDY    58  52  80 CALM      30.34S
HAYDEN         CLOUDY    66  46  48 NE9       30.36S
MEEKER         CLOUDY    65  53  65 SW5       30.37R
MOUNT WERNER   NOT AVBL
STEAMBOAT SPGS CLOUDY    68  47  48 CALM      30.38S
WALDEN         PTCLDY    55  45  67 S5        30.48S
$$

COZ006>008-011-290600-
...WEST CENTRAL VALLEYS...

CITY           SKY/WX    TMP DP  RH WIND       PRES   REMARKS
GRAND JUNCTION CLOUDY    70  57  63 SW6       30.25R
MONTROSE       RAIN      64  57  78 SE16      30.40R
EAGLE          CLOUDY    63  54  72 CALM      30.42S
RIFLE          CLOUDY    64  59  83 W6        30.32S
DELTA          RAIN      73  57  58 S12       30.34R
NUCLA          CLOUDY    61  59  94 E10       30.40S
$$

COZ017>023-064>068-290600-
...SOUTHWEST COLORADO...

CITY           SKY/WX    TMP DP  RH WIND       PRES   REMARKS
DURANGO        CLOUDY    60  57  89 CALM      30.42F
CORTEZ         CLOUDY    63  60  90 CALM      30.36R
PAGOSA SPRINGS DRIZZLE   59  56  89 CALM      30.51F
TELLURIDE      CLOUDY    54  48  82 S3        30.57F
WOLF CREEK PAS NOT AVBL
$$

COZ009-010-012-014-032>034-037-058>063-290600-
...CENTRAL COLORADO...

CITY           SKY/WX    TMP DP  RH WIND       PRES   REMARKS
ASPEN          CLOUDY    57  53  86 S6        30.46F
BUENA VISTA    LGT RAIN  56  54  92 CALM      30.53F
COPPER MTN     CLOUDY    50  39  66 S23       30.77F
BERTHOUD PASS  FAIR      43  30  61 MISG      30.81F
COTTONWOOD PAS DRIZZLE   54  50  87 CALM      30.64S
GUNNISON       CLOUDY    59  50  72 S6        30.54S
KREMMLING      CLOUDY    63  43  48 S7        30.45S
LEADVILLE      LGT RAIN  49  49 100 CALM      30.64S
MONARCH PASS   CLOUDY    45  41  87 SW9       30.87F
SALIDA         CLOUDY    59  56  89 NE3       30.57S
SUNLIGHT       CLOUDY    50  46  87 CALM      30.68S
WILKERSON PASS CLOUDY    45  43  93 W8        30.74S
$$

COZ069>075-290600-
...SAN LUIS VALLEY/SANGRE DE CRISTO MOUNTAINS...

CITY           SKY/WX    TMP DP  RH WIND       PRES   REMARKS
ALAMOSA        CLOUDY    56  54  93 N8        30.50R
LA VETA PASS   CLOUDY    46  45  93 W7        30.63F
SAGUACHE       LGT RAIN  55  54  94 NW3       30.55F
$$

COZ035-036-038>040-290600-
...NORTHERN COLORADO FRONT RANGE...

CITY           SKY/WX    TMP DP  RH WIND       PRES   REMARKS
DENVER INTL AP PTCLDY    67  58  72 S12       30.29S
DMNS CITY PARK   N/A     68  55  63 S3        30.28S
AURORA         PTCLDY    66  59  78 S10       30.31F
FRONT RANGE AP NOT AVBL
ERIE MUNI ARPT PTCLDY    67  61  81 CALM      30.28S
BOULDER MUN AP PTCLDY    68  57  68 N7        30.30S
CENTENNIAL     MOCLDY    64  57  78 S7        30.32F
BROOMFIELD     NOT AVBL
FORT COLLINS   MOCLDY    72  57  60 N9        30.30S
LONGMONT       MOCLDY    71  59  67 NW6       30.30S
$$

COZ041-046-047-076>085-087-088-290600-
...PIKES PEAK/PALMER DIVIDE AND SOUTHERN FOOTHILLS...

CITY           SKY/WX    TMP DP  RH WIND       PRES   REMARKS
COLO. SPRINGS  CLOUDY    65  59  81 CALM      30.37F
A. F. ACADEMY  MOCLDY    61  60  96 N6        30.39F
ELLICOTT       MOCLDY    63  61  93 SE6       30.36F
FALCON         MOCLDY    61  59  92 CALM      30.42F
FORT CARSON    MOCLDY    64  59  85 NW8       30.34F
LIMON          MOCLDY    63  54  72 SE6       30.33S
MONUMENT HILL  PTCLDY    57  55  94 S9        30.41F
TRINIDAD       CLOUDY    64  60  87 W12       30.35F
$$

COZ042>045-048>051-090-091-290600-
...NORTHEAST COLORADO...

CITY           SKY/WX    TMP DP  RH WIND       PRES   REMARKS
GREELEY ARPT   MOCLDY    70  55  60 NE3       30.27S
AKRON          CLOUDY    72  55  55 S12       30.26F
BURLINGTON     MOCLDY    67  58  72 S9        30.28S
WRAY             N/A     74  53  48 S8        30.23F
STERLING       CLOUDY    73  61  64 S5        30.23S
HOLYOKE        CLOUDY    72  55  56 S7        30.23S
FORT MORGAN    CLOUDY    71  56  58 S5        30.25F
$$

COZ086-089-092>099-290600-
...SOUTHEAST COLORADO...

CITY           SKY/WX    TMP DP  RH WIND       PRES   REMARKS
PUEBLO         MOCLDY    69  61  75 CALM      30.27F
LA JUNTA       CLOUDY    71  65  81 NE5       30.25S
LAMAR          MOCLDY    68  61  78 E7        30.23S
SPRINGFIELD      N/A     64  63  96 S8        30.29S
$$



USA.gov is the U.S. government's official web portal to all federal, state and local government web resources and services.